Theta_e
304 298 293 297 300 299 298 296 295 297 297 295 295 297 300 304 303 304 308 311 313 315 319 321 322 323 324 325 325 326 327 328 327 325 325 326 325 323 321 317 316 318 318 320
298 293 299 302 301 299 297 295 295 298 298 296 294 293 297 300 302 304 305 306 308 309 312 316 318 320 322 323 325 325 326 325 322 321 321 321 321 320 318 316 317 317 318 320
295 297 302 300 299 295 296 293 294 293 294 295 293 294 296 298 299 302 303 303 304 305 306 307 313 315 318 319 321 322 322 321 320 319 318 316 314 315 314 313 314 315 317 319
297 300 299 299 296 297 292 298 296 291 291 287 293 283 295 298 298 298 300 300 301 302 303 303 303 304 308 311 311 314 314 316 316 316 314 312 310 310 312 313 314 312 313 315
292 293 295 296 298 299 294 297 296 294 291 289 288 283 290 295 293 295 298 299 298 298 297 299 300 302 301 303 304 306 309 309 311 311 311 310 310 311 311 312 311 309 309 310
292 297 296 296 297 299 298 295 294 293 290 281 287 287 286 292 293 296 295 293 295 296 298 300 302 302 301 302 302 303 305 306 308 309 309 308 308 310 310 308 308 307 306 306
290 291 295 297 293 296 296 290 282 280 278 278 286 286 288 294 295 292 293 294 295 297 298 299 300 300 301 302 303 303 303 303 305 307 306 306 307 308 310 309 307 306 305 303
283 280 291 295 291 290 291 291 283 276 277 279 283 280 286 292 294 295 296 296 296 296 298 299 301 301 300 301 301 301 302 302 303 304 303 304 306 307 310 309 308 307 304 302
283 284 292 294 295 295 290 286 288 280 277 277 280 284 289 292 291 292 294 295 294 297 299 298 300 300 300 300 300 300 300 300 301 300 301 302 304 306 308 308 307 306 304 301
289 283 290 293 295 295 291 290 279 280 271 271 276 278 280 286 288 291 293 293 295 297 298 298 299 300 300 300 299 299 300 299 300 299 299 300 301 303 305 305 304 302 299 297
293 288 287 291 289 287 289 285 286 286 281 274 274 277 287 288 290 291 292 294 294 295 297 298 299 300 300 299 299 298 299 299 299 299 298 298 298 300 301 301 300 299 297 295
292 289 284 285 292 294 291 287 287 280 278 279 279 278 291 291 292 292 292 294 294 295 296 297 298 299 299 299 299 299 298 298 298 298 297 297 297 298 298 298 298 297 295 294
292 286 281 283 287 290 288 289 289 288 286 280 276 279 291 291 292 292 292 293 295 294 295 297 298 297 298 299 299 299 298 297 298 297 296 295 295 295 294 295 295 295 293 292
293 286 283 279 282 287 285 288 289 288 279 280 281 283 288 290 292 294 294 294 295 296 297 297 297 298 298 299 299 298 298 298 297 296 295 293 293 294 293 293 293 292 291 290
290 282 284 284 286 286 287 287 288 286 287 282 285 285 288 291 293 293 293 294 295 295 294 294 294 294 295 296 297 298 298 297 297 295 294 294 293 293 292 291 291 290 289 290
289 281 284 280 285 286 282 287 288 288 289 288 288 288 293 295 291 290 291 292 292 292 292 293 294 294 294 295 296 297 297 297 296 295 293 293 292 291 289 288 288 287 286 287
284 281 276 270 280 280 272 282 285 287 289 288 285 290 291 288 288 288 288 291 290 290 291 291 292 293 293 293 295 294 295 296 295 293 292 291 289 288 287 287 286 285 285 284
281 281 278 273 272 265 280 285 286 287 290 291 290 287 287 287 287 288 291 290 290 291 291 291 291 291 291 291 292 292 291 291 291 291 290 289 288 288 287 285 286 285 284 284
284 281 269 268 267 276 278 281 281 282 282 285 285 285 286 286 286 287 290 290 290 291 291 291 290 290 289 289 289 288 286 286 287 287 288 289 287 287 286 285 285 285 283 282
284 283 273 266 264 262 279 282 286 285 276 285 285 284 284 285 279 282 289 290 290 290 290 289 287 286 286 286 285 283 283 283 284 285 285 285 285 286 286 286 285 284 284 284
268 269 265 265 263 270 281 282 287 269 276 284 284 284 285 283 284 287 288 288 288 287 287 287 285 284 284 283 283 283 282 282 283 283 282 282 283 283 284 285 284 283 282 282
270 267 265 265 263 265 284 282 278 283 283 284 283 284 285 285 286 286 286 284 284 284 283 283 281 282 282 281 282 281 280 282 281 280 280 280 280 281 282 282 283 282 282 281
271 278 274 275 274 283 285 284 287 286 284 282 282 284 285 284 283 284 283 282 282 282 281 281 279 280 280 279 280 279 280 280 279 277 277 278 279 280 281 280 282 281 281 280
278 282 277 278 280 282 284 285 284 285 284 284 284 282 284 282 282 281 281 281 280 280 279 278 277 276 276 277 278 277 277 277 276 275 275 277 277 278 278 279 280 281 280 280
278 279 275 276 280 281 281 283 284 284 283 283 282 281 281 280 280 280 279 279 278 278 276 275 275 275 275 275 274 274 274 274 273 273 274 275 277 276 277 277 278 279 281 282
279 277 276 274 281 281 282 282 282 281 280 279 278 278 279 279 278 278 276 276 275 274 273 273 272 272 272 271 271 271 271 271 270 270 271 272 274 276 276 275 276 281 283 283
Wind_Speed
3 3 5 9 7 7 5 2 2 2 9 6 5 5 2 6 4 5 6 7 8 9 8 9 9 8 8 7 7 7 7 8 4 3 3 3 4 3 3 4 5 4 2 3
3 5 7 12 10 7 7 6 4 6 6 7 10 9 9 5 6 7 6 5 5 4 5 5 5 6 7 8 7 6 6 6 5 3 3 3 4 4 4 4 5 4 2 3
6 3 12 8 12 13 9 9 6 1 6 7 8 9 5 8 6 5 7 6 5 7 7 6 8 9 8 7 6 7 7 6 5 7 3 2 1 2 2 1 2 3 3 3
6 4 12 12 15 15 11 13 9 6 6 3 5 6 7 6 12 9 8 5 8 8 6 5 5 4 2 3 1 2 2 4 5 5 4 5 4 4 3 4 4 4 4 4
5 6 7 13 17 16 4 10 12 6 4 7 5 1 6 8 5 6 9 8 6 5 6 7 7 7 6 6 4 5 4 4 4 4 4 4 4 3 3 3 7 5 3 2
2 2 5 4 5 10 9 10 12 7 3 3 8 6 5 5 5 5 3 6 6 6 7 7 6 4 5 5 6 6 7 6 5 4 4 5 5 6 2 3 4 3 3 3
3 3 2 3 8 10 14 10 4 2 1 5 1 7 9 9 5 2 5 6 6 7 5 4 5 5 6 6 5 4 4 6 5 3 2 4 6 6 5 4 4 5 4 4
8 3 8 4 1 7 8 9 4 5 5 4 4 6 5 3 4 5 7 5 3 3 5 5 6 4 4 4 3 4 4 4 6 3 3 4 5 3 4 5 5 5 5 5
11 4 3 8 2 6 4 4 3 6 1 3 5 5 6 7 4 2 5 6 1 7 5 5 6 5 4 4 4 3 5 4 6 2 3 6 5 5 6 7 6 5 6 5
6 6 6 5 1 3 3 6 5 3 3 3 3 3 5 1 1 4 8 9 8 6 7 6 5 4 4 3 3 2 2 4 5 5 5 5 6 7 6 5 6 5 5 6
3 6 4 6 6 9 4 4 3 5 4 4 1 1 3 6 8 9 8 7 7 7 6 6 4 2 2 3 3 3 5 6 6 6 6 6 6 6 6 6 6 5 4 6
1 4 7 5 3 4 6 5 4 4 4 4 4 3 4 7 8 8 6 6 5 4 4 1 4 5 5 4 4 5 6 7 7 7 7 7 7 7 7 7 7 6 7 6
2 1 7 3 3 2 3 5 6 2 3 4 5 3 3 4 7 7 7 5 2 1 4 6 7 6 7 8 7 6 6 7 7 6 6 7 8 7 8 8 7 7 7 7
4 2 3 4 4 2 6 8 7 5 3 2 5 4 4 4 7 8 7 6 7 7 7 10 14 14 14 14 11 9 8 7 7 6 7 7 9 8 8 7 7 8 8 8
3 4 4 6 6 4 4 3 7 9 7 5 2 4 3 5 6 5 8 9 8 11 12 9 9 9 9 11 11 9 8 8 7 7 7 9 8 8 7 8 8 6 7 8
5 2 3 3 4 5 3 6 5 3 9 9 7 13 5 6 9 11 9 8 8 8 7 7 7 7 7 8 11 12 10 9 7 7 9 9 8 8 8 8 8 7 8 7
4 3 3 1 5 3 5 11 10 5 3 5 8 9 3 7 9 7 7 7 7 7 7 7 8 8 8 9 12 12 13 14 12 9 9 8 8 9 8 8 8 9 10 7
4 3 2 2 2 0 5 5 1 13 8 11 5 7 8 7 5 5 8 7 5 5 6 6 6 8 9 8 8 9 10 12 12 13 12 9 8 10 8 8 10 10 6 11
4 3 3 4 3 5 2 3 1 4 2 7 6 7 7 7 5 4 7 4 4 6 6 5 6 7 8 9 8 10 12 11 10 11 13 13 9 11 8 9 11 9 6 7
3 5 5 2 3 6 1 1 5 3 2 6 7 6 4 4 3 1 10 9 8 8 7 7 7 6 8 8 8 8 10 9 10 11 14 13 12 14 15 11 10 7 8 11
2 2 4 2 2 8 4 1 4 8 5 4 2 2 4 2 1 5 8 7 5 5 8 8 7 7 9 9 9 11 10 10 10 11 13 13 11 11 12 13 6 6 7 7
7 6 4 1 2 9 7 4 5 5 4 5 2 3 4 4 6 7 8 6 8 8 8 7 6 10 11 8 8 12 13 12 12 13 14 14 12 9 8 10 9 6 6 6
4 7 6 9 8 4 6 2 5 4 3 1 3 3 4 5 6 7 5 7 7 7 7 5 6 11 12 8 6 13 14 14 14 14 15 14 13 10 9 9 9 5 6 7
4 4 3 2 7 10 6 3 2 2 2 3 2 3 4 5 6 7 7 7 8 8 7 6 8 11 13 9 10 11 14 14 14 15 15 13 12 12 8 6 6 6 7 8
5 6 6 6 8 8 7 4 4 5 4 4 5 3 3 5 7 5 7 8 8 7 5 6 9 11 13 11 13 12 13 12 14 14 14 14 11 10 11 8 7 8 9 9
7 8 6 6 3 4 4 5 4 4 3 3 3 5 5 5 5 5 6 5 6 8 9 9 10 12 13 13 14 13 12 11 12 14 12 11 11 10 8 8 9 15 21 20
Wind_Direction
160 196 199 167 149 130 128 124 325 36 14 339 334 310 156 165 179 271 272 185 186 186 195 187 192 195 193 190 198 196 188 194 169 179 178 204 210 199 208 211 213 197 224 250
123 239 195 175 167 135 167 177 222 309 16 3 4 328 310 221 187 194 235 248 233 221 198 218 203 190 192 197 206 203 216 198 186 176 198 184 189 210 197 193 173 161 224 244
151 158 221 242 163 170 220 175 152 307 352 353 334 291 274 265 253 182 229 259 290 246 227 221 205 203 194 208 206 199 216 223 211 198 189 208 69 33 107 157 152 169 197 234
222 325 207 198 184 183 184 212 148 155 153 202 152 270 267 237 220 195 203 226 245 260 277 265 329 40 160 235 118 200 216 226 232 212 202 201 187 202 211 178 181 161 177 225
148 157 211 189 192 178 170 123 165 181 46 8 198 330 256 264 280 186 200 216 258 3 52 36 19 6 10 36 48 5 306 255 259 239 205 217 239 236 241 113 132 142 163 203
63 312 353 35 29 122 116 81 65 64 86 225 214 200 255 216 231 225 133 100 74 47 23 10 22 41 333 348 10 358 342 319 294 256 234 234 258 254 238 134 149 161 173 203
171 104 45 254 91 131 129 135 108 125 170 225 339 216 245 298 330 350 91 89 57 37 29 21 347 352 359 8 10 344 324 304 295 244 237 269 259 287 267 186 174 175 188 196
176 180 175 213 203 179 173 161 152 178 184 182 346 238 261 279 31 61 74 63 32 340 57 40 39 25 7 360 358 328 303 281 301 185 219 256 254 236 253 201 186 195 193 193
179 171 141 147 21 144 177 208 94 92 19 68 205 259 277 234 254 143 86 77 45 99 57 46 40 43 24 1 344 324 313 295 300 275 266 260 246 241 236 227 199 190 186 175
138 120 162 121 154 179 176 133 68 356 134 230 245 233 237 307 153 126 82 65 54 59 51 51 46 28 14 345 321 304 281 277 250 233 233 239 240 244 249 244 220 203 180 167
22 120 157 128 222 170 181 165 191 136 140 170 136 253 337 72 80 88 75 57 40 28 42 48 33 344 265 251 265 264 246 234 241 235 236 237 246 235 236 231 222 212 189 181
356 107 143 159 2 17 218 162 174 130 226 243 126 273 63 83 85 93 65 51 51 40 357 325 283 288 288 283 262 257 253 246 238 226 227 233 237 234 232 227 220 203 199 189
264 58 120 115 314 57 177 220 207 234 91 205 123 247 231 177 127 149 144 143 137 187 325 338 334 343 352 324 280 260 253 256 258 248 240 240 242 233 227 226 220 203 192 194
9 62 65 129 99 119 165 199 216 213 131 196 198 149 195 147 42 5 5 10 10 11 4 8 15 7 359 352 343 311 289 263 250 239 245 257 254 242 236 231 222 203 195 193
66 98 83 78 85 17 75 183 215 216 226 188 129 263 285 359 349 339 25 21 13 32 31 16 6 354 344 342 337 335 331 300 264 243 238 244 252 245 244 234 227 222 209 212
338 106 98 80 118 140 171 238 268 255 240 265 284 279 285 316 51 36 13 5 43 34 8 353 344 332 331 332 329 329 322 317 292 255 245 244 245 241 234 234 227 217 211 214
32 92 46 167 355 44 337 210 197 189 224 203 239 245 31 45 36 10 330 50 37 13 341 330 331 333 340 333 327 323 326 325 321 303 276 262 252 248 238 232 220 218 216 194
53 46 27 138 28 43 248 354 242 196 209 225 237 59 69 58 353 315 67 57 11 323 313 326 328 337 333 320 314 327 326 319 317 313 301 289 274 264 246 225 235 236 218 214
4 60 63 127 198 281 324 51 58 163 128 24 72 54 39 22 318 178 74 43 321 315 321 331 342 324 322 318 323 330 326 320 318 318 320 314 299 286 267 252 232 223 216 223
322 47 105 37 119 209 201 89 344 352 261 73 57 31 352 3 76 281 4 352 324 331 327 324 329 335 319 313 325 323 315 312 318 325 320 313 309 299 288 264 246 240 220 225
66 20 153 206 225 290 245 175 344 91 219 108 69 359 353 345 265 315 332 319 337 328 322 338 344 316 303 326 320 321 311 314 312 314 311 306 302 296 293 286 262 228 224 230
163 147 193 182 101 276 161 107 184 185 140 121 326 5 330 328 333 302 297 324 330 321 326 332 328 321 321 322 328 320 317 317 318 315 311 303 297 292 290 282 278 255 203 222
226 188 185 179 211 232 194 104 103 103 134 121 82 18 329 312 290 298 312 323 317 324 318 330 337 317 315 319 321 318 316 322 319 314 309 304 298 293 284 273 272 227 242 198
244 246 214 98 260 244 245 264 153 178 99 93 35 299 315 305 314 317 331 328 329 331 337 330 322 312 308 324 321 314 317 318 316 310 308 303 297 296 275 260 263 246 234 235
205 136 188 262 284 297 280 227 111 90 53 40 31 21 331 335 325 332 323 320 314 306 306 316 306 309 311 321 317 319 320 321 316 311 308 304 294 289 290 263 257 253 247 235
182 189 178 216 187 146 133 119 79 91 111 85 4 335 16 10 323 312 289 285 289 309 317 315 314 314 319 320 313 315 314 318 314 311 311 306 302 297 286 282 283 259 262 259